Terminal Aerodrome Forecast
Issued by NWS Columbia, SC

Home | Current Version | Previous Version | Text Only | Print | Product List | Glossary On
Versions: 1 2 3 4 5 6 7 8 9 10 11 12 13 14 15 16 17 18 19 20 21 22 23 24 25 26 27 28 29 30 31 32 33 34 35 36 37 38 39 40 41 42 43 44 45 46 47 48 49 50
000
FTAK31 PAJN 210948 AAB
TAFAGS
TAF AMD
PAGS 210948Z 2110/2206 VRB03KT P6SM OVC020
     FM211200 00000KT 1/2SM FG OVC002
     FM211700 VRB04KT P6SM SCT100 BKN250
     FM220200 12007KT P6SM -RA SCT020 BKN035
      AMD LTD TO CLD VIS AND WIND=

USA.gov is the U.S. government's official web portal to all federal, state and local government web resources and services.